This is the latest recevied weather packets stored in our database for station/object F6DEV-13. If no packets are shown the sender has not sent any weather packets the latest 1 day(s).
| Time | Temp. | Humidity | Pressure | Rain* | Wind** | Luminosity | Snow |
|---|---|---|---|---|---|---|---|
| 1777993464 | 10° C | 86% | 1011 hPa | 3.05 mm | 1.34 m/s, 220° | - | - |
| 1777993433 | 10° C | 86% | 1011 hPa | 3.05 mm | 1.34 m/s, 220° | - | - |
| 1777993133 | 10° C | 86% | 1011 hPa | 2.03 mm | 2.24 m/s, 253° | - | - |
| 1777992840 | 10° C | 85% | 1011 hPa | 2.03 mm | 1.34 m/s, 229° | - | - |
| 1777992803 | 10° C | 85% | 1011 hPa | 2.03 mm | 1.34 m/s, 229° | - | - |
| 1777992503 | 10° C | 85% | 1011 hPa | 2.03 mm | 3.13 m/s, 264° | - | - |
| 1777992203 | 10° C | 84% | 1011 hPa | 2.03 mm | 2.24 m/s, 272° | - | - |
| 1777991873 | 10° C | 83% | 1010 hPa | 2.03 mm | 3.58 m/s, 284° | - | - |
| 1777991573 | 11.11° C | 83% | 1010 hPa | 2.03 mm | 3.58 m/s, 305° | - | - |
| 1777991273 | 11.67° C | 81% | 1010 hPa | 1.02 mm | 3.13 m/s, 298° | - | - |
| 1777991012 | 12.22° C | 79% | 1009 hPa | 1.02 mm | 4.47 m/s, 296° | - | - |
| 1777990973 | 12.22° C | 79% | 1009 hPa | 1.02 mm | 4.47 m/s, 296° | - | - |
| 1777990673 | 12.78° C | 75% | 1009 hPa | 0 mm | 2.24 m/s, 322° | - | - |
| 1777990373 | 12.78° C | 74% | 1009 hPa | 0 mm | 2.24 m/s, 331° | - | - |
| 1777990073 | 13.33° C | 72% | 1009 hPa | 0 mm | 0.89 m/s, 325° | - | - |
| 1777989773 | 13.89° C | 71% | 1009 hPa | 0 mm | 0 m/s | - | - |
| 1777989508 | 13.89° C | 71% | 1009 hPa | 0 mm | 0 m/s | - | - |
| 1777989473 | 13.89° C | 71% | 1009 hPa | 0 mm | 0 m/s | - | - |
| 1777989204 | 14.44° C | 69% | 1009 hPa | 0 mm | 0.89 m/s, 344° | - | - |
| 1777989172 | 14.44° C | 69% | 1009 hPa | 0 mm | 0.89 m/s, 344° | - | - |
| 1777988872 | 14.44° C | 68% | 1009 hPa | 0 mm | 0 m/s | - | - |
| 1777988572 | 15° C | 66% | 1009 hPa | 0 mm | 0 m/s | - | - |
| 1777988475 | 15.56° C | 66% | 1009 hPa | 0 mm | 0 m/s | - | - |
| 1777988272 | 15.56° C | 66% | 1009 hPa | 0 mm | 0 m/s | - | - |
| 1777987972 | 15.56° C | 66% | 1009 hPa | 0 mm | 0 m/s | - | - |
* Rain latest hour (hover to see other rain measurements)
** Current wind speed in m/s (hover to see current wind gust speed)